Location: Fort Wayne
(41.1310°N, 85.1290°W)
Time: 08:10:21
(UTC-04:00)

Cosmos 2219 Rocket - Visible Passes

Search period start: 22 September 2014 00:00
Search period end: 02 October 2014 00:00
Orbit: 828 x 847 km, 71.0° (Epoch: 21 September)

Date Brightness Start Highest point End Pass type
(mag) Time Alt. Az. Time Alt. Az. Time Alt. Az.
22 Sep 4.9 02:51:53 14° NNE 02:51:53 14° NNE 02:52:32 10° NNE visible
22 Sep 4.4 04:33:37 14° NNW 04:33:37 14° NNW 04:35:07 10° N visible
23 Sep 5.1 02:36:05 11° NNE 02:36:05 11° NNE 02:36:17 10° NNE visible
23 Sep 4.5 04:17:49 14° NNW 04:17:49 14° NNW 04:19:00 10° N visible
24 Sep 4.6 04:02:01 13° NNW 04:02:01 13° NNW 04:02:52 10° N visible
25 Sep 4.8 03:46:11 12° N 03:46:11 12° N 03:46:44 10° N visible
26 Sep 4.9 03:30:21 11° N 03:30:21 11° N 03:30:35 10° N visible
